Weather History for Beaver Island, MI

Change the Weather History Date:

Wednesday, September 26, 2012

  Actual Average Record
Temperature  
Mean Temperature 48 °F -  
Max Temperature 59 °F 62 °F 80 °F (1973)
Min Temperature 38 °F 46 °F 33 °F (1965)
Degree Days  
Heating Degree Days 16    
Moisture  
Dew Point 39 °F    
Average Humidity 69    
Maximum Humidity 92    
Minimum Humidity 46    
Precipitation  
Precipitation 0.00 in - - ()
Sea Level Pressure  
Sea Level Pressure 30.06 in    
Wind  
Wind Speed 2 mph (NNW)    
Max Wind Speed 10 mph    
Max Gust Speed -    
Visibility 10 miles    
Events      
Averages and records for this station are not official NWS values.
T = Trace of Precipitation, MM = Missing Value Source: NWS Daily Summary

Daily Weather History Graph

Daily Weather History Graph

Search for Another Location

Airport:

Trip Planner

Search our weather history database for the weather conditions in past years. The results will help you decide how hot, cold, wet, or windy it might be!

Date:

Astronomy

Sep. 26, 2012 Rise Set
Actual Time 7:34 AM EDT 7:31 PM EDT
Civil Twilight 7:05 AM EDT 8:00 PM EDT
Nautical Twilight 6:30 AM EDT 8:35 PM EDT
Astronomical Twilight 5:55 AM EDT 9:10 PM EDT
Moon 5:37 PM EDT (9/26) 3:50 AM EDT (9/26)
Length of Visible Light 12h 55m
Length of Day
11h 56m
Waxing Gibbous, 88% of the Moon is Illuminated
Sep 26
Waxing Gibbous
Sep 29
Full
Oct 8
Last Quarter
Oct 15
New
Oct 21
First Quarter

Hourly Weather History & Observations

Time (EDT) Temp. Windchill Dew Point Humidity Pressure Visibility Wind Dir Wind Speed Gust Speed Precip Events Conditions
12:35 AM 43.7 °F - 40.6 °F 89% 29.93 in 10.0 mi Calm Calm - N/A   Scattered Clouds
1:15 AM 41.7 °F - 38.7 °F 89% 29.93 in 10.0 mi Calm Calm - N/A   Scattered Clouds
1:35 AM 41.7 °F - 39.2 °F 91% 29.93 in 7.0 mi Calm Calm - N/A   Scattered Clouds
1:55 AM 40.6 °F - 38.3 °F 91% 29.94 in 10.0 mi Calm Calm - N/A   Mostly Cloudy
2:15 AM 41.5 °F - 39.2 °F 91% 29.94 in 10.0 mi Calm Calm - N/A   Mostly Cloudy
2:35 AM 41.4 °F - 38.8 °F 91% 29.95 in 10.0 mi Calm Calm - N/A   Mostly Cloudy
2:55 AM 42.4 °F - 39.7 °F 90% 29.95 in 10.0 mi Calm Calm - N/A   Overcast
3:15 AM 42.3 °F - 39.6 °F 90% 29.95 in 10.0 mi Calm Calm - N/A   Overcast
3:35 AM 42.4 °F - 39.7 °F 90% 29.95 in 10.0 mi Calm Calm - N/A   Overcast
3:55 AM 43.2 °F - 40.5 °F 90% 29.95 in 10.0 mi Calm Calm - N/A   Overcast
4:15 AM 43.7 °F - 41.0 °F 90% 29.95 in 10.0 mi Calm Calm - N/A   Overcast
4:35 AM 43.0 °F - 39.9 °F 89% 29.96 in 10.0 mi Calm Calm - N/A   Mostly Cloudy
4:55 AM 43.3 °F - 40.6 °F 90% 29.96 in 10.0 mi Calm Calm - N/A   Mostly Cloudy
5:15 AM 40.8 °F - 37.9 °F 89% 29.95 in 7.0 mi Calm Calm - N/A   Scattered Clouds
5:35 AM 39.6 °F - 36.9 °F 90% 29.95 in 10.0 mi Calm Calm - N/A   Clear
5:55 AM 39.9 °F - 37.6 °F 91% 29.95 in 10.0 mi Calm Calm - N/A   Clear
6:15 AM 39.9 °F - 37.8 °F 92% 29.95 in 10.0 mi Calm Calm - N/A   Clear
6:35 AM 39.2 °F - 36.9 °F 91% 29.96 in 10.0 mi Calm Calm - N/A   Scattered Clouds
6:55 AM 38.3 °F - 36.1 °F 92% 29.97 in 10.0 mi Calm Calm - N/A   Scattered Clouds
7:15 AM 39.9 °F 36.7 °F 37.8 °F 92% 29.98 in 10.0 mi NNW 4.6 mph - N/A   Mostly Cloudy
7:35 AM 45.3 °F - 41.9 °F 88% 29.98 in 10.0 mi Calm Calm - N/A   Scattered Clouds
7:55 AM 44.1 °F - 39.0 °F 82% 29.99 in 10.0 mi Calm Calm - N/A   Scattered Clouds
8:35 AM 45.5 °F - 42.1 °F 88% 30.00 in 10.0 mi Calm Calm - N/A   Scattered Clouds
8:55 AM 51.4 °F - 43.3 °F 74% 30.01 in 10.0 mi Calm Calm - N/A   Mostly Cloudy
9:15 AM 52.0 °F - 41.0 °F 66% 30.02 in 10.0 mi NNW 3.5 mph - N/A   Mostly Cloudy
9:35 AM 53.8 °F - 42.8 °F 66% 30.03 in 10.0 mi NNW 8.1 mph - N/A   Scattered Clouds
9:55 AM 53.6 °F - 42.1 °F 65% 30.03 in 10.0 mi NNW 5.8 mph - N/A   Scattered Clouds
10:15 AM 54.5 °F - 42.1 °F 63% 30.04 in 10.0 mi NNW 4.6 mph - N/A   Clear
10:35 AM 54.9 °F - 42.1 °F 62% 30.05 in 10.0 mi NW 8.1 mph - N/A   Clear
10:55 AM 55.4 °F - 41.0 °F 58% 30.06 in 10.0 mi North 5.8 mph - N/A   Clear
11:15 AM 56.3 °F - 40.8 °F 56% 30.07 in 10.0 mi NNW 5.8 mph - N/A   Clear
11:35 AM 57.7 °F - 40.5 °F 53% 30.07 in 10.0 mi West 6.9 mph - N/A   Mostly Cloudy
11:52 AM 55.6 °F - 38.7 °F 53% 30.07 in 10.0 mi NNW 4.6 mph - N/A   Mostly Cloudy
12:15 PM 57.2 °F - 40.1 °F 53% 30.08 in 10.0 mi North 8.1 mph - N/A   Overcast
12:35 PM 57.4 °F - 38.7 °F 50% 30.08 in 10.0 mi NW 5.8 mph - N/A   Scattered Clouds
12:55 PM 57.4 °F - 39.2 °F 51% 30.08 in 10.0 mi WNW 6.9 mph - N/A   Clear
1:15 PM 58.5 °F - 39.7 °F 50% 30.08 in 10.0 mi NW 8.1 mph - N/A   Clear
1:35 PM 59.0 °F - 40.3 °F 50% 30.09 in 10.0 mi WNW 8.1 mph - N/A   Mostly Cloudy
1:55 PM 57.2 °F - 42.1 °F 57% 30.09 in 10.0 mi WNW 10.4 mph - N/A   Overcast
2:15 PM 56.3 °F - 41.7 °F 58% 30.08 in 10.0 mi NW 6.9 mph - N/A   Overcast
2:35 PM 58.6 °F - 40.5 °F 51% 30.08 in 10.0 mi WNW 8.1 mph - N/A   Overcast
2:55 PM 56.8 °F - 40.5 °F 54% 30.08 in 10.0 mi NNE 3.5 mph - N/A   Overcast
3:15 PM 56.8 °F - 39.9 °F 53% 30.09 in 10.0 mi WNW 3.5 mph - N/A   Overcast
3:35 PM 57.0 °F - 39.9 °F 53% 30.09 in 10.0 mi NW 3.5 mph - N/A   Overcast
3:55 PM 57.9 °F - 40.6 °F 53% 30.10 in 10.0 mi West 6.9 mph - N/A   Overcast
4:15 PM 59.2 °F - 38.5 °F 46% 30.10 in 10.0 mi WNW 6.9 mph - N/A   Scattered Clouds
4:35 PM 57.2 °F - 38.7 °F 50% 30.10 in 10.0 mi NW 6.9 mph - N/A   Mostly Cloudy
4:55 PM 56.5 °F - 39.0 °F 52% 30.11 in 10.0 mi NW 4.6 mph - N/A   Mostly Cloudy
5:15 PM 58.8 °F - 39.0 °F 48% 30.11 in 10.0 mi WNW 6.9 mph - N/A   Overcast
5:35 PM 57.2 °F - 39.7 °F 52% 30.12 in 10.0 mi NW 4.6 mph - N/A   Overcast
6:15 PM 58.1 °F - 40.6 °F 52% 30.13 in 10.0 mi WNW 5.8 mph - N/A   Overcast
6:35 PM 57.2 °F - 37.4 °F 48% 30.14 in 10.0 mi NNW 6.9 mph - N/A   Mostly Cloudy
6:55 PM 55.6 °F - 35.8 °F 47% 30.14 in 10.0 mi North 4.6 mph - N/A   Overcast
7:15 PM 54.5 °F - 37.6 °F 53% 30.15 in 10.0 mi NNW 5.8 mph - N/A   Mostly Cloudy
7:35 PM 53.2 °F - 37.6 °F 55% 30.16 in 10.0 mi North 4.6 mph - N/A   Scattered Clouds
7:55 PM 52.2 °F - 37.6 °F 58% 30.16 in 10.0 mi North 3.5 mph - N/A   Clear
8:14 PM 51.3 °F - 37.8 °F 60% 30.17 in 10.0 mi North 4.6 mph - N/A   Clear
8:35 PM 50.4 °F - 37.6 °F 62% 30.18 in 10.0 mi North 3.5 mph - N/A   Clear
8:55 PM 50.4 °F - 37.4 °F 61% 30.18 in 10.0 mi North 3.5 mph - N/A   Clear
9:15 PM 49.5 °F - 36.7 °F 61% 30.19 in 10.0 mi Calm Calm - N/A   Clear
9:35 PM 49.3 °F - 37.9 °F 65% 30.19 in 10.0 mi North 3.5 mph - N/A   Clear
9:55 PM 49.3 °F - 37.8 °F 65% 30.20 in 10.0 mi North 4.6 mph - N/A   Clear
10:15 PM 48.6 °F - 37.6 °F 66% 30.21 in 10.0 mi North 3.5 mph - N/A   Clear
10:35 PM 48.2 °F - 36.1 °F 63% 30.21 in 10.0 mi North 4.6 mph - N/A   Clear
10:55 PM 48.7 °F - 36.3 °F 62% 30.21 in 10.0 mi Calm Calm - N/A   Clear
11:15 PM 45.5 °F - 36.3 °F 70% 30.22 in 10.0 mi Calm Calm - N/A   Clear
11:35 PM 40.8 °F - 34.3 °F 78% 30.22 in 10.0 mi Calm Calm - N/A   Clear
11:55 PM 39.4 °F - 34.9 °F 84% 30.22 in 10.0 mi Calm Calm - N/A   Clear